Tracking 27380 objects as of 5-Jun-2023
HD Live streaming from Space Station
objects crossing your sky now

STARLINK-1074

Track STARLINK-1074 now!
10-day predictions
STARLINK-1074 is classified as:


NORAD ID: 44957
Int'l Code: 2020-001AV
Perigee: 553.5 km
Apogee: 555.2 km
Inclination: 53.1 °
Period: 95.6 minutes
Semi major axis: 6925 km
RCS: Unknown
Launch date: January 7, 2020
Source: United States (US)
Launch site: AIR FORCE EASTERN TEST RANGE (AFETR)
Your satellite tracking list
Your tracking list is empty




NASA's NSSDC Master Catalog

Two Line Element Set (TLE):
1 44957U 20001AV  23156.19415738  .00001104  00000-0  93021-4 0  9992
2 44957  53.0534 153.9198 0001252  69.2387 290.8736 15.06395874188406
Source of the keplerian elements: AFSPC